GEFSSGP_con_cape1000_186.txt.gz
Probability
32 32 35 35 26 0 0 0 0 3 10 13 3 3 3 13 13 32 39 26 23 42 68 87 97 97 97 97 100 100 100 100 100 97 94 94 97 94 97 94 94 90 84 84 90 81 77 84 87
26 23 23 23 3 0 0 0 6 13 16 26 19 16 16 39 45 48 39 26 29 52 65 84 97 97 97 97 100 100 100 100 100 97 97 97 97 97 97 97 97 90 84 90 84 84 81 77 84
23 19 23 3 0 0 0 10 16 23 19 23 42 42 45 52 48 39 48 39 42 48 71 94 97 97 97 97 100 97 100 100 97 97 97 97 97 97 97 97 97 90 90 87 87 87 77 81 84
16 23 19 6 0 3 6 16 23 19 19 19 32 61 71 61 58 48 42 42 48 55 77 90 97 97 97 100 100 97 97 100 97 97 97 97 97 97 97 97 94 94 90 87 84 84 84 87 81
23 23 6 0 0 6 6 10 19 19 23 23 35 55 71 77 61 58 58 42 55 61 74 87 97 97 97 100 100 100 100 100 97 97 97 94 97 97 97 97 97 94 94 97 87 87 77 74 74
16 6 3 0 3 6 13 13 16 19 29 35 35 48 81 81 77 68 52 55 55 58 81 90 97 97 100 100 100 100 100 100 100 100 97 94 97 97 94 94 94 87 94 97 90 84 84 81 84
13 6 3 0 0 3 13 16 16 16 26 39 45 45 87 84 87 81 68 65 61 61 77 90 90 94 94 97 100 100 100 100 100 100 100 94 94 97 97 94 94 94 94 84 77 84 81 84 81
10 6 0 0 0 0 3 6 13 16 32 55 45 45 77 90 90 84 81 68 71 65 81 84 74 84 87 94 97 97 94 94 97 97 94 90 90 90 87 87 94 90 87 87 77 71 74 87 90
10 6 0 0 0 3 3 10 23 32 48 58 58 58 84 90 87 90 81 84 87 87 84 84 68 68 65 68 87 90 90 94 97 94 87 94 74 58 68 74 81 84 81 77 74 74 71 81 84
3 3 0 0 0 0 3 3 19 39 48 68 87 84 94 90 90 87 87 87 87 84 90 87 68 71 68 65 84 90 87 90 90 94 81 81 77 71 55 68 81 68 68 71 68 65 58 65 52
3 0 0 0 0 0 0 6 13 26 32 55 74 90 97 94 90 84 81 84 87 94 90 87 71 77 77 87 87 90 87 90 94 90 81 81 61 55 58 65 74 77 55 42 45 42 39 26 48
0 0 0 0 0 0 3 6 16 26 32 45 65 84 94 90 87 87 84 77 84 90 90 90 84 90 87 84 81 90 87 84 77 90 84 77 55 65 61 71 65 68 68 71 42 68 48 45 39
0 0 0 0 0 0 0 13 13 29 35 61 61 81 90 90 90 84 81 84 87 97 84 87 87 94 94 94 84 68 81 65 77 94 74 58 52 55 55 65 68 45 52 61 61 52 68 52 39
0 0 0 0 0 3 3 6 23 29 45 61 65 87 87 90 87 81 81 84 87 90 87 87 87 94 94 94 94 87 74 94 55 68 68 61 52 55 55 71 71 42 42 55 55 58 65 52 52
0 0 3 3 6 3 3 3 16 29 55 65 74 77 81 84 84 77 77 84 81 90 90 94 94 90 90 90 90 81 68 74 68 84 84 81 61 77 65 58 71 61 61 71 74 58 48 45 39
0 0 0 3 3 3 3 0 10 42 58 58 71 74 84 87 84 84 84 84 77 81 94 94 84 90 90 94 94 77 68 68 81 81 81 71 68 81 84 58 58 74 61 68 74 48 48 39 35
0 0 0 3 3 0 0 0 16 45 55 58 65 71 71 77 74 77 84 77 77 81 87 90 87 94 90 90 90 84 84 84 77 71 77 71 71 65 74 68 74 74 65 55 42 42 42 35 42
0 0 0 0 3 3 0 0 16 39 45 48 55 71 77 81 81 84 77 77 77 81 84 90 87 87 84 87 84 84 84 84 77 71 84 61 65 58 61 52 65 52 61 71 61 74 65 52 55
0 0 0 0 3 0 0 6 13 35 48 45 55 68 77 74 74 84 81 77 74 77 84 87 84 84 84 77 65 68 84 77 77 74 68 55 55 58 65 48 74 71 65 65 42 48 52 45 45
0 0 0 0 0 0 3 3 10 26 39 42 58 68 68 74 81 84 84 81 68 71 74 74 81 77 74 71 71 71 71 71 77 61 65 61 48 52 39 58 58 65 71 65 55 61 48 32 29
0 0 0 0 3 0 0 3 6 13 35 42 52 65 61 68 74 81 81 74 71 71 71 68 81 77 71 71 74 71 74 61 55 68 65 55 52 52 52 55 58 68 55 58 61 52 52 32 23
0 0 0 0 3 0 0 0 10 16 35 39 42 52 55 71 71 77 81 71 74 74 74 74 77 81 77 74 61 61 58 55 61 61 55 48 55 52 48 45 48 52 55 55 45 29 32 35 32
0 0 0 0 0 0 0 0 0 3 13 32 39 39 48 61 58 77 74 77 71 71 68 71 77 77 77 77 68 81 68 68 61 58 58 55 45 48 45 48 52 55 48 39 29 35 35 26 26
0 0 0 0 0 0 0 0 0 3 3 6 26 39 45 58 58 71 77 77 71 68 71 71 81 81 77 77 68 71 77 74 58 48 48 52 48 55 48 45 42 39 48 39 39 35 29 35 32
0 0 0 0 0 0 0 0 0 3 3 3 16 32 42 52 61 71 84 84 81 71 71 77 77 84 81 74 68 74 74 71 71 52 52 55 45 52 55 35 48 42 42 32 29 39 29 32 35
0 0 0 0 0 0 0 0 3 3 3 3 13 29 42 45 68 71 74 71 71 71 68 74 77 81 74 74 77 74 71 65 65 58 48 55 55 45 48 52 42 32 26 19 29 23 29 32 29
0 0 0 0 0 0 0 0 3 6 3 10 16 23 32 42 58 68 68 71 74 77 74 71 77 77 77 77 74 81 65 61 61 61 65 52 58 45 45 39 32 23 26 29 29 29 23 26 23
0 0 0 0 0 0 0 0 0 6 10 10 19 32 35 32 45 55 65 71 68 74 71 68 77 74 81 71 65 55 61 61 61 61 58 55 58 39 42 29 26 29 32 26 32 23 19 16 23
0 0 0 0 0 0 0 0 3 6 6 16 29 42 48 45 52 45 55 71 65 68 68 68 71 74 74 68 61 55 55 52 52 58 52 52 58 48 42 35 26 26 26 29 26 16 16 16 13
0 0 0 0 0 0 0 3 3 3 19 23 32 39 35 42 42 48 55 61 68 68 61 61 68 68 71 68 55 55 52 52 48 52 52 55 52 52 39 35 29 29 26 29 23 16 13 16 10

GEFSSGP_con_cape1000_192.txt.gz
Probability
3 13 32 45 45 42 6 0 0 0 0 0 0 10 26 32 35 29 35 48 52 48 61 84 97 97 97 97 100 100 100 97 97 94 97 94 90 97 94 90 87 87 81 77 81 81 84 84 87
3 23 23 32 26 6 0 0 0 3 3 3 10 26 29 29 29 35 45 55 48 48 52 77 97 97 97 100 97 100 100 100 97 94 94 94 97 94 94 90 84 84 87 84 77 77 84 87 87
3 26 29 26 16 0 0 0 3 0 0 6 13 39 39 29 32 39 55 48 45 48 58 97 97 97 97 100 100 100 97 97 97 97 94 94 94 90 90 90 87 87 84 81 77 77 81 81 74
19 23 16 13 6 3 3 3 3 0 0 10 26 32 39 35 32 45 52 48 55 58 68 97 97 97 97 100 100 97 97 97 97 97 97 94 90 90 90 87 94 90 94 90 90 87 81 77 68
16 16 13 10 3 0 6 10 10 3 0 16 48 58 58 55 42 52 58 48 61 58 68 87 100 97 100 100 100 100 97 97 97 94 90 90 90 97 94 90 97 97 97 100 97 84 77 68 52
16 16 10 3 0 3 3 3 6 16 6 23 55 74 71 68 55 52 61 58 65 65 68 90 100 97 97 97 94 94 97 97 94 94 90 90 90 97 97 97 97 94 97 97 94 81 81 65 48
10 10 3 0 0 3 3 0 6 6 16 19 42 74 81 81 74 65 71 74 77 77 77 90 90 97 97 97 94 94 97 94 94 90 90 90 97 97 97 97 97 97 97 97 81 74 71 68 55
3 13 10 3 0 0 0 3 10 19 16 13 29 71 90 90 81 77 81 84 84 84 81 87 84 90 87 94 94 94 94 97 94 90 90 90 94 94 94 100 100 90 90 81 71 71 65 58 52
3 6 6 3 0 0 0 0 6 10 19 26 35 77 94 87 74 81 87 90 94 90 94 81 81 84 77 81 90 94 94 90 94 84 84 90 77 68 84 74 87 84 81 77 71 71 74 68 61
3 3 3 0 0 3 0 3 6 10 19 35 68 90 94 90 87 84 77 84 90 90 90 97 77 77 77 68 84 87 74 87 87 87 84 87 87 81 68 77 81 74 68 71 71 77 74 74 58
0 0 0 0 0 0 0 3 6 6 23 45 81 94 94 87 90 94 84 87 90 90 90 87 87 90 81 87 84 87 87 90 87 87 87 87 87 84 61 65 68 81 68 68 77 74 55 61 65
0 0 0 0 0 0 0 3 3 10 10 39 74 87 90 90 87 94 90 87 87 87 87 90 90 90 90 90 90 90 90 87 84 90 87 90 90 87 84 81 87 94 90 87 77 81 77 71 65
0 0 0 0 0 0 0 0 0 19 23 48 65 87 84 90 90 87 90 94 90 94 87 94 90 90 90 90 90 84 94 90 94 94 90 90 94 90 87 90 94 90 87 87 87 81 84 77 74
0 0 0 0 0 0 0 3 3 16 26 48 61 77 87 81 87 84 87 90 90 90 94 94 90 90 90 90 90 94 90 94 87 90 90 84 84 84 90 90 90 87 90 90 87 84 87 90 81
0 0 0 3 3 0 0 3 0 16 29 35 58 74 81 84 84 81 87 90 90 87 94 94 90 90 90 90 90 90 90 94 94 94 87 84 84 87 84 87 87 90 87 87 90 84 77 84 81
0 0 0 0 3 0 0 0 3 19 26 35 55 71 81 81 81 81 87 90 87 87 90 94 90 90 90 90 90 90 90 94 94 90 90 84 84 81 81 84 84 87 84 87 94 90 87 90 84
0 0 0 0 0 0 0 0 10 19 26 45 55 65 74 81 84 87 84 87 84 87 94 94 94 90 90 90 94 94 94 94 94 90 94 84 81 84 81 84 84 81 84 84 74 87 94 90 81
0 0 0 0 0 0 0 3 16 13 26 39 45 61 84 84 87 87 87 84 84 87 87 90 94 97 94 94 94 94 94 94 87 90 87 84 84 77 77 77 77 74 84 87 87 90 87 90 84
0 0 0 0 0 0 0 6 13 19 23 29 48 65 71 87 87 87 84 84 81 87 90 90 97 94 94 90 90 87 87 87 87 84 81 81 71 68 68 71 84 71 77 74 71 81 77 81 81
0 0 0 0 0 0 0 0 6 19 26 29 39 68 71 81 87 87 84 84 81 87 94 94 90 90 90 90 90 87 84 87 87 84 84 81 71 65 55 74 81 68 77 68 68 81 77 74 68
0 0 0 0 0 0 0 0 3 13 23 26 32 65 74 87 90 90 87 87 81 87 87 87 94 90 87 84 87 84 87 87 81 87 84 77 71 65 65 74 68 74 74 84 74 68 77 71 77
0 0 0 0 0 0 0 0 10 13 13 23 32 29 61 77 87 94 87 87 90 90 87 94 94 94 87 84 81 77 77 77 84 87 74 74 61 65 61 58 65 74 77 77 77 71 81 71 58
0 0 0 0 0 0 0 0 0 13 13 23 23 35 52 65 81 90 94 90 90 87 84 87 94 90 81 77 84 87 81 81 81 74 71 68 55 61 61 61 61 68 74 71 77 81 74 74 55
0 0 0 0 0 0 0 0 3 3 16 16 26 35 48 58 71 87 87 94 90 90 84 81 84 90 81 84 84 81 84 84 81 77 74 68 65 55 61 65 68 65 68 71 68 71 58 61 52
0 0 0 0 0 0 0 0 10 6 3 10 13 32 32 52 65 81 84 94 87 87 84 77 81 77 77 81 84 77 84 84 81 74 68 61 61 52 55 61 74 71 71 65 68 68 68 52 42
0 0 0 0 0 0 0 0 6 6 3 3 19 16 29 39 68 77 84 94 90 87 84 87 87 81 81 81 84 84 84 81 68 68 68 71 65 65 68 71 65 65 65 58 68 65 58 52 45
0 0 0 0 0 0 0 3 6 3 3 6 13 23 26 35 55 71 77 84 87 87 81 87 94 87 87 77 84 84 87 81 74 77 68 71 68 65 61 71 61 61 65 61 65 65 58 52 35
0 0 0 0 3 0 0 0 10 10 3 6 6 13 35 42 45 71 81 87 87 87 90 90 94 94 87 84 84 77 90 94 81 68 71 74 74 68 65 55 58 55 55 52 52 45 48 45 39
0 0 0 0 6 0 0 3 6 26 16 10 10 19 42 48 45 65 71 71 84 74 94 94 90 94 94 87 87 90 94 90 84 74 74 71 68 68 61 65 61 55 55 42 45 42 45 42 39
0 0 0 0 16 6 0 6 6 10 3 19 32 35 42 52 61 61 61 68 81 77 84 90 90 94 87 87 84 90 90 87 74 74 74 68 65 61 65 61 65 48 48 52 45 42 42 39 35

GEFSSGP_con_cape1000_198.txt.gz
Probability
6 3 10 6 3 3 3 0 3 3 10 10 16 16 10 6 3 6 13 19 45 61 71 94 97 97 94 100 100 97 97 94 94 97 97 97 94 90 87 84 87 84 84 77 81 81 84 94 97
0 0 6 3 0 0 0 0 3 6 16 16 16 13 16 32 23 26 29 39 48 61 65 77 97 100 100 100 100 100 97 97 94 97 97 97 97 97 90 84 81 84 84 81 77 77 77 81 87
0 0 0 0 0 0 0 0 0 13 26 19 13 26 26 42 32 29 35 39 45 58 65 90 100 100 100 100 100 100 100 94 94 97 97 97 97 97 90 84 81 84 84 81 77 81 77 74 74
0 0 3 0 0 0 0 0 3 16 29 26 23 26 29 42 42 32 39 39 52 58 74 97 100 100 100 100 100 100 100 97 94 94 97 100 97 97 90 84 84 87 90 94 90 84 74 68 71
0 0 0 0 0 0 0 0 6 19 42 39 32 29 42 42 35 39 39 42 55 68 77 100 100 100 100 100 100 100 100 100 94 97 94 94 100 97 97 90 90 90 84 81 74 74 68 68 71
0 0 0 0 0 0 0 3 16 32 55 45 32 29 39 52 48 45 35 42 58 77 81 100 100 100 100 100 100 100 97 97 94 90 94 94 97 97 97 94 90 87 81 77 81 71 61 58 52
0 0 0 0 0 0 0 6 19 29 45 52 39 29 32 48 52 48 42 42 61 71 84 90 94 100 100 100 100 100 97 97 94 94 94 94 97 97 97 94 94 90 87 81 74 48 45 45 61
3 0 0 0 0 0 0 6 10 29 55 55 39 32 35 45 48 45 45 45 55 68 71 71 81 87 87 97 100 100 94 94 94 94 94 90 90 94 90 94 90 81 77 81 68 48 39 52 65
0 0 0 0 0 3 3 10 23 29 65 61 65 32 45 58 45 39 45 45 52 55 61 61 65 68 74 81 94 90 90 90 90 90 90 84 45 48 74 84 87 81 71 74 71 55 48 55 55
0 0 0 0 0 0 13 16 19 48 61 68 61 52 58 65 52 45 42 45 45 48 52 45 55 52 61 74 77 71 81 84 65 68 68 32 19 26 39 84 90 84 81 74 71 74 65 45 13
0 0 0 0 0 0 6 13 13 39 52 68 55 68 55 61 55 58 55 42 39 39 42 32 42 42 39 48 55 39 39 39 35 35 29 29 16 19 29 39 55 52 52 23 26 39 26 13 10
0 0 0 0 0 0 3 10 16 32 42 61 55 65 55 55 68 61 61 48 35 42 42 32 29 29 29 39 42 35 29 29 29 26 23 16 10 16 13 13 13 16 13 10 16 10 10 10 13
0 0 0 0 0 0 6 16 16 35 48 61 55 61 65 52 61 61 61 58 42 39 52 42 39 29 29 29 32 32 26 39 35 23 16 16 13 13 6 13 10 6 6 10 6 10 6 3 10
0 0 0 0 0 0 6 13 19 32 48 52 58 58 58 65 52 58 61 55 52 55 52 48 52 39 32 32 32 32 35 29 35 29 23 16 6 10 13 13 13 16 13 13 6 6 6 6 3
0 0 0 0 0 0 3 13 23 29 42 52 58 58 55 52 48 65 65 58 58 61 52 61 61 55 52 48 48 48 48 35 39 29 26 23 13 13 16 13 19 19 13 3 6 0 10 6 6
0 0 0 0 0 0 0 10 19 32 35 42 58 55 65 68 61 68 68 61 65 65 68 71 71 55 55 52 52 48 42 35 29 23 19 35 32 26 26 13 6 6 16 16 6 3 10 6 3
0 0 0 0 0 0 6 10 23 29 32 52 58 61 71 68 74 74 74 61 68 71 65 61 65 58 55 55 48 45 29 35 26 23 16 35 32 23 16 10 13 6 6 10 13 6 6 6 3
0 0 0 0 0 0 6 10 13 29 42 45 61 65 68 65 68 74 74 71 68 65 65 68 71 61 58 58 45 35 29 39 23 23 16 23 29 26 19 10 6 6 6 3 0 0 0 0 0
0 0 0 0 0 0 3 13 13 29 39 42 48 65 58 61 71 71 81 77 74 74 71 68 68 68 58 58 52 39 35 26 29 26 23 19 23 26 19 19 16 3 0 0 0 0 0 0 0
0 0 0 0 0 0 0 10 10 16 29 39 42 58 61 65 71 74 77 81 77 77 77 68 68 71 55 48 42 42 35 32 32 39 26 16 23 19 23 16 13 6 3 3 0 0 0 0 0
0 0 0 0 0 0 0 3 10 10 19 32 39 45 55 65 71 71 77 77 77 77 77 74 71 68 61 48 48 48 35 29 35 26 23 23 23 19 19 13 3 6 0 0 0 0 0 0 0
0 0 0 0 0 0 0 0 0 10 10 16 32 35 52 65 71 71 74 77 77 77 77 71 68 71 71 58 52 48 35 26 29 29 26 19 23 26 16 16 3 3 3 0 0 0 0 0 0
0 0 0 0 0 0 0 0 0 6 13 16 19 39 48 55 65 71 74 81 77 77 77 71 68 71 65 61 55 45 35 29 19 23 26 23 23 23 26 16 16 10 6 0 0 0 0 0 0
0 0 0 0 0 0 0 0 0 0 10 13 16 35 42 58 65 71 74 77 74 74 77 71 71 68 61 65 55 48 35 26 29 29 26 23 23 23 26 23 19 16 16 3 0 0 0 0 0
0 0 0 0 0 0 0 0 0 0 0 13 16 29 45 58 61 74 81 77 74 74 77 71 68 68 65 61 55 45 35 29 29 26 26 26 19 19 23 19 10 10 13 10 3 0 0 0 0
0 0 0 0 0 0 0 0 0 0 3 3 16 23 42 61 65 68 68 65 61 68 71 68 65 61 61 61 58 48 42 29 26 26 26 26 26 26 23 19 16 13 16 16 6 0 0 0 0
0 0 0 0 0 0 3 3 3 3 6 10 10 29 39 65 71 65 61 61 58 55 61 58 58 61 61 58 58 58 45 39 32 29 26 23 26 26 23 23 23 19 16 16 10 6 0 0 0
0 0 0 0 0 0 0 3 3 3 3 10 13 23 26 45 48 61 58 61 55 45 55 61 58 58 58 58 61 58 48 45 35 26 26 26 19 16 16 23 23 23 19 16 3 6 6 6 0
0 0 0 0 0 0 0 0 6 6 6 6 13 16 16 26 39 42 52 55 58 48 52 58 58 55 55 58 58 52 48 42 39 29 26 23 19 19 16 19 19 23 16 16 3 6 6 6 3
0 0 0 0 0 0 0 0 0 0 6 6 13 13 32 29 32 39 42 45 55 45 48 55 55 55 55 55 58 55 48 42 42 39 32 19 19 23 19 16 16 13 10 10 6 10 6 6 6

GEFSSGP_con_cape1000_204.txt.gz
Probability
3 3 3 3 0 0 0 0 0 0 3 0 3 3 3 6 3 0 3 10 35 61 68 77 94 94 94 90 94 94 94 94 90 90 94 90 90 87 87 87 90 90 81 74 81 90 87 90 87
3 3 0 0 0 0 0 0 0 6 3 3 6 10 16 23 13 6 10 26 45 61 61 65 90 94 97 97 94 94 97 97 94 94 90 87 90 87 87 87 87 74 74 74 74 77 77 90 90
0 0 0 0 0 0 0 0 3 3 6 10 16 19 26 26 16 10 16 45 52 55 52 71 97 97 97 97 97 94 97 97 97 94 87 87 84 87 84 87 84 74 77 77 77 77 71 77 81
0 0 0 0 0 0 0 0 3 3 6 6 13 16 32 29 19 26 35 55 52 48 58 84 100 100 97 97 97 97 94 97 97 97 94 90 87 87 87 87 87 84 84 81 77 77 74 71 71
0 0 0 0 0 0 0 0 6 13 13 19 19 23 29 32 39 45 52 55 55 52 61 87 100 100 97 97 94 97 90 94 94 97 97 90 90 90 90 87 87 84 84 74 77 81 68 68 71
0 0 0 0 0 0 0 3 6 13 16 26 23 26 26 35 39 48 45 55 61 61 77 94 97 100 100 100 97 100 100 100 100 100 100 94 90 90 87 87 84 84 74 77 65 61 68 71 74
0 0 0 0 0 0 3 6 6 10 19 26 35 26 29 35 35 39 48 52 65 74 77 81 90 97 97 97 100 94 94 94 94 97 97 94 90 87 87 87 87 77 87 71 68 65 68 68 65
0 0 0 0 0 0 0 10 13 16 26 32 32 29 29 35 35 42 48 55 58 68 71 71 77 77 87 94 97 97 90 94 94 94 90 90 90 84 81 87 81 71 68 71 61 52 65 71 68
0 0 0 0 0 0 3 10 23 26 29 42 42 26 29 39 42 45 45 48 48 52 52 55 61 61 68 77 90 90 84 90 90 87 94 74 55 55 61 68 77 74 71 68 65 61 61 68 68
0 0 0 0 0 0 0 10 16 26 35 45 42 45 42 39 35 29 26 32 45 52 52 52 52 52 58 77 74 65 65 58 52 45 35 16 19 23 48 68 77 74 71 65 71 71 39 29 35
0 0 0 0 0 0 0 10 10 29 29 45 42 55 48 42 32 23 23 23 35 52 55 52 48 45 48 42 48 39 39 32 29 26 13 13 10 16 26 32 42 35 29 23 26 13 10 6 10
0 0 0 0 0 3 3 6 10 19 26 39 52 61 58 48 35 26 19 16 26 35 45 45 45 39 26 32 42 26 26 26 19 16 13 10 3 10 16 19 16 13 13 13 6 6 3 6 10
0 0 0 0 3 3 10 10 10 16 19 42 58 65 58 45 32 26 23 19 23 29 42 42 39 29 29 23 29 26 23 26 16 13 13 10 6 6 6 10 10 10 10 3 0 0 6 3 6
0 0 0 0 0 6 10 16 19 26 42 58 65 61 61 48 45 39 19 23 23 26 29 35 35 32 26 23 23 26 23 23 13 13 13 10 6 3 3 0 6 6 6 3 6 6 6 3 10
0 0 0 0 3 6 10 16 23 29 52 58 68 65 61 55 48 52 32 19 26 23 26 26 26 26 16 19 19 23 23 19 16 13 13 13 13 6 0 3 3 3 0 0 6 3 3 3 10
0 0 0 0 0 3 3 3 16 32 52 55 61 61 61 52 48 52 45 26 16 16 16 26 42 23 16 10 13 19 13 13 10 10 13 13 13 3 3 3 6 3 0 3 0 0 6 6 3
0 0 0 0 0 0 0 0 19 29 42 48 52 52 61 55 45 52 48 32 19 16 16 19 23 23 19 6 6 13 13 10 6 10 10 16 19 16 3 3 3 0 0 0 0 3 3 0 0
0 0 0 0 0 0 3 6 19 32 42 42 42 45 48 48 52 48 48 32 26 26 23 23 19 23 19 13 13 16 16 13 6 10 10 10 13 23 3 0 0 0 0 0 0 0 0 0 0
0 0 0 0 0 0 0 6 19 29 32 35 42 48 42 48 52 45 55 45 32 26 23 32 29 29 23 23 26 19 19 19 13 13 16 13 13 29 10 3 0 0 0 0 0 0 0 0 0
0 0 0 0 0 0 0 3 16 23 26 39 42 39 45 48 48 55 52 48 48 39 29 29 32 39 26 26 23 16 19 16 16 16 13 16 16 19 13 3 0 0 0 0 0 0 0 0 0
0 0 0 0 0 0 3 3 10 16 19 26 26 29 39 52 45 58 58 55 58 48 45 48 39 35 35 23 19 16 13 16 16 13 13 16 16 16 13 10 6 0 0 0 0 0 0 0 0
0 0 0 0 0 0 0 0 0 6 13 19 19 26 23 32 39 52 61 61 61 52 55 52 42 42 32 26 26 19 19 26 26 19 16 13 13 16 16 13 6 3 0 0 0 0 0 0 0
0 0 0 0 0 0 0 0 0 3 16 19 13 16 26 26 35 42 52 68 58 61 61 58 48 39 32 29 23 19 19 19 13 13 16 13 13 13 16 16 10 3 3 0 0 0 0 0 0
0 0 0 0 0 0 0 0 0 0 6 13 19 19 19 29 35 48 52 58 61 58 65 61 52 45 29 29 26 19 19 13 13 10 13 13 10 13 13 13 13 6 6 3 0 0 0 0 0
0 0 0 0 0 0 0 0 0 0 0 3 6 13 26 32 32 42 48 55 58 58 68 61 52 42 39 32 29 26 23 16 13 13 13 13 10 10 13 13 6 6 3 3 0 0 0 0 0
0 0 0 0 0 0 0 0 0 0 3 3 6 10 23 35 42 35 48 52 61 58 65 65 52 45 42 42 32 26 23 19 19 13 13 16 16 10 6 6 6 6 3 3 0 0 0 0 0
0 0 0 0 0 0 0 0 0 3 10 6 10 10 19 26 42 35 42 42 48 58 65 65 52 48 45 42 39 32 26 23 19 16 13 13 16 13 6 6 6 6 3 3 0 0 0 0 0
0 0 0 0 0 0 0 0 0 6 10 6 10 6 13 26 35 35 39 35 45 52 45 58 61 48 48 48 42 35 35 23 19 19 16 13 16 13 10 10 10 10 10 6 0 0 0 0 0
0 0 0 0 0 0 0 0 0 6 6 6 10 10 10 23 29 29 35 32 35 39 35 48 52 52 52 48 35 42 35 23 19 19 23 19 19 16 13 13 10 10 6 10 6 3 0 0 0
0 0 0 0 0 0 0 0 0 3 6 10 13 10 16 19 23 35 29 29 32 29 32 39 42 42 45 45 42 32 29 26 23 19 23 23 19 16 13 13 13 10 10 10 6 3 6 3 3

GEFSSGP_con_cape1000_210.txt.gz
Probability
3 3 10 19 10 0 0 0 0 0 3 10 0 3 6 3 3 10 10 10 10 29 45 77 94 94 90 90 94 94 90 90 90 94 94 90 94 87 90 90 84 84 84 87 87 87 84 81 81
3 3 6 6 0 0 0 0 0 6 10 16 13 10 13 23 13 13 10 16 19 32 45 71 90 94 94 90 94 94 94 94 94 94 94 90 90 90 90 87 84 87 87 87 84 84 81 81 81
3 3 3 0 0 0 0 0 6 13 10 13 10 16 23 16 13 13 19 23 23 35 52 90 94 90 90 97 97 100 97 90 90 94 90 90 90 87 90 87 87 84 81 77 81 84 77 74 74
0 10 3 0 0 0 0 0 3 13 13 10 6 19 26 19 13 16 23 16 26 32 52 87 94 94 97 97 100 100 100 94 90 90 90 94 97 94 90 87 87 84 81 81 81 84 77 81 84
3 0 0 0 0 0 0 0 3 10 10 13 6 6 39 39 29 26 23 19 23 35 52 68 97 97 94 97 100 100 100 94 94 90 90 90 90 90 84 81 84 84 77 74 77 74 71 77 74
3 0 0 0 0 0 0 3 6 16 16 13 6 10 52 45 39 32 19 23 16 39 45 74 97 97 97 97 97 97 100 97 94 90 90 90 90 90 90 87 87 87 81 74 77 68 68 61 61
0 0 0 0 0 0 6 10 3 13 19 19 10 19 55 61 55 48 39 26 23 35 58 71 81 90 94 100 97 97 97 97 94 90 90 87 87 90 90 90 90 90 81 81 74 71 55 58 61
3 0 0 0 0 0 6 6 13 13 32 23 16 19 45 65 65 61 58 35 48 48 55 65 71 77 71 81 97 97 94 94 94 94 90 87 74 77 74 87 87 90 77 81 74 65 65 65 65
3 0 0 0 0 0 6 6 13 19 39 39 45 42 48 61 68 71 65 68 68 61 65 65 74 74 74 71 71 84 90 94 90 87 74 74 58 48 71 68 87 84 81 71 71 61 61 61 68
3 0 0 0 0 0 3 10 16 29 42 42 55 58 68 71 68 65 68 65 68 65 71 81 77 71 65 58 81 71 77 74 71 74 68 77 71 58 55 65 81 77 74 61 58 52 58 52 52
3 0 0 0 0 0 0 6 19 16 16 39 52 71 71 65 71 61 52 52 55 65 65 77 87 84 68 71 68 68 71 84 74 65 65 77 52 45 42 61 68 74 61 35 45 42 42 42 45
0 0 0 0 0 0 0 6 13 10 13 35 55 65 71 65 65 55 48 52 52 58 68 81 90 94 90 74 65 71 55 65 58 65 61 55 52 45 52 65 52 61 61 71 45 65 52 45 52
0 0 0 0 0 0 3 6 13 16 42 48 61 71 71 71 61 55 58 52 55 61 74 81 94 97 97 97 77 55 58 52 65 77 74 68 52 48 55 58 65 45 58 61 55 58 55 52 45
0 0 0 3 3 6 6 10 10 32 55 65 65 74 68 68 61 58 58 68 58 65 74 84 84 90 94 90 90 68 52 81 61 58 61 77 48 61 61 65 71 48 42 35 48 55 61 52 48
0 0 0 3 6 10 13 6 13 42 58 68 77 81 61 71 74 65 71 77 71 71 81 77 84 87 94 90 87 61 48 68 65 65 74 81 55 68 58 45 45 42 52 58 61 52 48 58 61
0 0 0 3 6 13 3 3 32 61 61 61 74 77 84 84 61 71 74 81 77 71 87 74 65 74 94 90 94 74 55 58 74 77 77 81 74 84 77 58 32 52 48 61 65 55 48 52 55
0 0 0 0 3 6 3 3 35 55 65 71 84 81 87 87 81 81 74 84 84 84 94 90 81 84 84 90 90 87 87 84 71 77 77 81 77 77 77 71 68 58 55 58 52 55 52 55 58
0 0 0 0 3 3 0 6 32 55 68 68 81 87 87 94 94 87 81 81 84 94 94 90 90 90 90 90 94 94 84 77 84 90 94 84 81 77 74 74 77 52 55 68 71 71 68 61 61
0 0 0 0 0 3 0 6 19 52 58 68 74 87 84 90 90 94 87 81 87 90 90 90 90 87 90 90 90 84 84 81 74 77 84 81 74 71 74 65 71 71 68 71 58 58 52 52 55
0 0 0 0 0 0 0 0 13 45 48 61 68 74 77 87 90 94 87 87 87 87 90 90 87 87 90 94 90 87 84 77 77 81 84 81 74 71 58 71 68 68 71 65 61 61 58 48 58
0 0 0 0 0 0 0 0 13 32 42 48 58 74 71 84 90 90 90 90 87 84 87 87 87 90 90 90 87 87 87 84 71 84 81 87 74 74 65 68 65 71 65 65 68 68 68 52 52
0 0 0 0 0 0 0 0 6 23 32 39 58 61 68 68 81 90 94 87 90 90 84 87 90 90 94 87 87 84 84 81 81 77 77 81 84 68 71 65 61 68 71 74 65 61 61 68 58
0 0 0 0 0 0 0 0 3 13 23 35 42 58 65 71 74 77 84 90 90 90 87 87 87 94 90 87 87 87 90 84 84 81 77 84 84 71 58 65 65 71 65 71 65 68 65 65 48
3 3 0 0 3 0 0 0 3 6 13 23 35 48 61 71 77 77 81 87 90 90 87 87 90 90 94 87 87 90 87 87 87 90 81 81 81 74 65 58 65 68 68 68 71 65 61 71 71
0 0 0 0 0 0 0 0 3 6 16 16 29 39 48 61 74 77 87 87 87 90 90 90 90 87 87 87 87 87 87 90 87 87 84 77 71 74 71 61 74 71 71 68 71 71 61 61 71
0 0 0 0 0 0 0 0 6 19 19 19 32 35 42 58 71 74 84 87 90 90 90 94 90 90 87 87 87 87 87 87 81 84 74 74 71 61 68 68 71 65 65 58 65 52 52 55 58
0 0 0 0 0 0 0 3 10 19 19 23 23 32 35 52 55 74 84 87 87 90 90 90 94 90 87 90 90 87 84 87 84 77 71 68 68 65 68 68 65 65 65 61 58 55 58 61 55
0 0 0 0 0 0 0 0 3 19 23 26 32 42 48 55 58 61 74 87 84 90 90 90 87 87 87 84 81 68 74 68 74 77 77 65 65 65 65 61 65 65 65 61 58 61 68 61 61
0 0 0 0 0 0 0 0 3 19 26 29 39 42 65 55 61 68 74 87 87 87 90 90 90 87 84 84 81 77 71 74 68 74 74 68 65 65 61 61 61 61 65 61 61 58 55 55 65
0 0 0 0 0 0 0 0 16 26 26 32 39 48 58 58 58 61 71 77 81 84 87 90 87 87 84 84 84 77 74 74 68 68 68 68 65 61 58 61 55 55 58 65 65 61 55 58 58